Meteo Giornale » Osservazioni meteo Gran Bretagna » Barkston Heath Royal

ore: 17:50 - Osservazioni Meteo Barkston Heath Royal
Lat. 52° 58' N Lon. 0° 34' W Alt. 112 metri s.l.m.

poco_nuvoloso

20 °C

Poco Nuvoloso

Temp. 24 Ore

11 °C

22 °C

Ovest/Sud-Ovest

20.3 Km/h

Dew point 10 °C

Umidità 52 %

Visibilità  12 Km

Il sole sorge alle ore 06:12

Il sole tramonta alle ore 19:51

Data e Ora Cielo e Fenomeni T °C DP °C Um. % Pres. hPa Vis. km Vento km/h
Oggi h: 17:50 poco_nuvoloso Poco Nuvoloso 20 10 52 1018 12 O/SO 20.3
Oggi h: 16:50 sereno Sereno 21 10 49 1018 10 O/SO 22.2
Oggi h: 15:50 sereno Sereno 20 9 49 1018 10 SO 18.5
Oggi h: 14:50 nuvoloso Nuvoloso 21 9 46 1018 10 O/SO 22.2
Oggi h: 13:50 nuvoloso Nuvoloso 22 9 43 1018 10 O/SO 24
Oggi h: 12:50 poco_nuvoloso Poco Nuvoloso 21 9 46 1018 10 SO 20.3
Oggi h: 11:50 poco_nuvoloso Poco Nuvoloso 20 9 49 1019 10 SO 22.2
Oggi h: 10:50 molto_nuvoloso Molto Nuvoloso 19 10 55 1019 10 O 22.2
Oggi h: 09:50 molto_nuvoloso Molto Nuvoloso 18 10 59 1019 10 O 18.5
Oggi h: 08:50 sereno Sereno 16 11 72 1019 10 O/SO 14.8
Oggi h: 07:50 sereno Sereno 13 11 87 1019 10 O/SO 14.8
Oggi h: 07:20 nuvoloso Nuvoloso 13 11 87 1019 11 O/SO 16.7
Oggi h: 06:50 molto_nuvoloso Molto Nuvoloso 12 11 93 1018 11 O/SO 18.5
Oggi h: 06:20 coperto Coperto 11 10 93 1018 11 O/SO 16.7
Oggi h: 05:50 coperto Coperto 12 10 87 1018 10 O/SO 14.8
Oggi h: 05:20 molto_nuvoloso Molto Nuvoloso 11 10 93 1018 10 O/SO 14.8
Oggi h: 04:50 sereno Sereno 12 10 87 1018 10 O/SO 13
Oggi h: 04:20 sereno Sereno 12 10 87 1018 10 O/SO 14.8
Oggi h: 03:50 sereno Sereno 12 10 87 1018 10 O/SO 14.8
Oggi h: 03:20 sereno Sereno 12 10 87 1018 10 O/SO 14.8
Oggi h: 02:50 nuvoloso Nuvoloso 13 11 87 1018 10 O/SO 16.7
Oggi h: 02:20 coperto Coperto 13 11 87 1018 10 O 18.5
Oggi h: 01:50 coperto Coperto 13 11 87 1018 10 O/SO 16.7
Oggi h: 01:20 nuvoloso Nuvoloso 13 11 87 1017 10 O/SO 14.8
Oggi h: 00:50 coperto Coperto 13 11 87 1017 0 O/SO 14.8
Oggi h: 00:20 coperto Coperto 13 11 87 1017 0 O/SO 13
Ieri h: 23:50 coperto Coperto 13 11 87 1017 0 O/SO 13
Ieri h: 23:20 coperto Coperto 13 11 87 1017 0 O/SO 14.8
Ieri h: 22:50 molto_nuvoloso Molto Nuvoloso 14 11 82 1017 0 O 16.7
Ieri h: 22:20 poco_nuvoloso Poco Nuvoloso 14 11 82 1017 0 O 13
Ieri h: 21:50 poco_nuvoloso Poco Nuvoloso 14 11 82 1017 0 O/NO 14.8
Ieri h: 21:20 molto_nuvoloso Molto Nuvoloso 14 11 82 1016 0 O 16.7
Ieri h: 20:50 sereno Sereno 15 11 76 1016 0 O 18.5
Ieri h: 20:20 coperto Coperto 15 10 72 1016 0 O 16.7
Ieri h: 19:50 nuvoloso Nuvoloso 16 10 67 1015 0 O 25.9